DateTimeUTC,F1_A11,F1_S11,BsB_S11,BsG_S11,BsR_S11,BbsB_S11,BbsG_S11,BbsR_S11,BaB_A11,BaG_A11,BaR_A11,Tu_S11,T_S11,Uu_S11,U_S11,P_S11,T1_A11
2021-03-18T09:00:00Z,00040200,20000000,,,,,,,-000.13,0000.02,0000.09,17.5,24.5,04.6,03.0,0648.5,30.9
2021-03-18T09:01:00Z,00040200,20000000,,,,,,,-000.91,-000.86,-000.59,17.5,24.5,04.6,03.0,0648.5,30.9
2021-03-18T09:02:00Z,00040200,20000000,,,,,,,-000.33,-000.20,-000.44,17.4,24.5,04.6,03.0,0648.5,30.9
2021-03-18T09:03:00Z,00040200,60000000,,,,,,,-000.21,-000.50,0000.11,17.4,24.5,04.6,03.0,0648.5,30.9
2021-03-18T09:04:00Z,00040200,40000000,0000.80,0000.36,0000.58,0000.62,0000.11,0000.05,0000.61,0000.74,0000.41,17.5,24.4,04.3,02.8,0649.3,30.9
2021-03-18T09:05:00Z,00040200,00000000,0000.41,0000.42,0000.23,0000.35,0000.09,-000.23,0000.39,0000.41,0000.29,17.6,24.3,04.2,02.8,0649.2,30.9
2021-03-18T09:06:00Z,00040200,00000000,0000.57,0000.39,0000.20,0000.41,-000.02,-000.19,0000.64,0000.35,0000.31,17.6,24.3,04.5,03.0,0649.3,30.9
2021-03-18T09:07:00Z,00040200,00000000,0000.43,0000.32,0000.46,0000.35,0000.03,-000.02,0000.01,-000.32,-000.26,17.6,24.3,04.5,03.0,0649.4,30.9
2021-03-18T09:08:00Z,00040200,00000000,0000.52,0000.70,0000.47,-000.00,0000.30,-000.32,0000.62,0000.81,0000.88,17.6,24.3,04.5,03.0,0649.4,30.9
2021-03-18T09:09:00Z,00040200,00000000,0000.04,0000.55,0000.40,0000.30,0000.08,0000.15,0000.57,0000.96,0000.59,17.6,24.3,04.6,03.1,0649.5,30.9
2021-03-18T09:10:00Z,00040200,00000000,0000.48,0000.40,0000.27,0000.16,-000.01,0000.07,-000.32,-000.32,-000.61,17.6,24.2,04.6,03.1,0649.4,30.9
2021-03-18T09:11:00Z,00040200,00000000,0001.25,0000.59,0000.46,-000.33,0000.06,-000.05,0000.28,0000.25,0000.16,17.6,24.3,04.6,03.0,0649.4,31.0
2021-03-18T09:12:00Z,00040200,00000000,0000.57,0000.42,0000.45,0000.18,0000.09,-000.15,-000.38,-000.61,0000.00,17.6,24.3,04.5,03.0,0649.5,31.0
2021-03-18T09:13:00Z,00040200,00000000,0000.58,0000.38,0000.91,0000.78,0000.13,0000.06,0000.06,0000.37,0000.23,17.6,24.3,04.4,02.9,0649.3,31.0
2021-03-18T09:14:00Z,00040200,00000000,0000.73,0000.54,0000.28,0000.21,0000.02,0000.03,0000.03,-000.32,-000.31,17.5,24.3,04.4,02.9,0649.4,31.0
2021-03-18T09:15:00Z,00040200,00000000,0000.67,0000.49,0000.11,-000.12,-000.02,-000.12,0000.21,0000.34,0000.44,17.6,24.3,04.4,02.9,0649.3,31.0
2021-03-18T09:16:00Z,00040200,00000000,0001.10,0000.57,0000.20,0000.48,0000.13,-000.04,0000.96,0001.31,0001.02,17.6,24.2,04.6,03.1,0649.5,30.9
2021-03-18T09:17:00Z,00040200,00000000,0000.82,0000.34,0000.25,0000.02,-000.21,-000.18,0000.08,-000.20,-000.50,17.6,24.2,04.6,03.1,0649.4,30.9
2021-03-18T09:18:00Z,00040200,00000000,0000.34,0000.69,0000.28,0000.18,-000.04,-000.13,-000.05,0000.02,0000.18,17.6,24.2,04.4,02.9,0649.4,30.9
2021-03-18T09:19:00Z,00040200,00000000,0000.72,0000.53,0000.06,0000.18,0000.04,-000.12,-000.28,-000.32,-000.02,17.5,24.2,04.3,02.9,0649.5,30.9
2021-03-18T09:20:00Z,00040200,00000000,0000.36,0000.38,0000.43,0000.85,0000.08,0000.10,0000.35,0000.56,0000.11,17.6,24.2,04.3,02.9,0649.5,30.9
2021-03-18T09:21:00Z,00040200,00000000,0000.56,0000.48,0000.33,-000.06,0000.08,-000.02,-000.25,-000.15,0000.04,17.6,24.2,04.3,02.9,0649.5,30.9
2021-03-18T09:22:00Z,00040200,00000000,0000.87,0000.33,0000.37,-000.37,0000.04,-000.00,0000.22,-000.21,0000.17,17.6,24.2,04.2,02.8,0649.3,31.0
2021-03-18T09:23:00Z,00040200,00000000,0000.75,0000.66,0000.31,0000.58,-000.06,-000.02,0000.79,0001.07,0000.52,17.5,24.2,04.3,02.9,0649.5,30.9
2021-03-18T09:24:00Z,00040200,00000000,0000.48,0000.50,0000.17,0000.59,0000.06,-000.10,0000.43,0000.39,0000.07,17.5,24.2,04.5,03.0,0649.5,30.9
2021-03-18T09:25:00Z,00040200,00000000,0000.72,0000.37,0000.55,0000.04,0000.12,0000.00,-000.24,-000.60,0000.01,17.5,24.2,04.4,02.9,0649.4,30.9
2021-03-18T09:26:00Z,00040200,00000000,0000.58,0000.50,0000.55,-000.21,0000.14,-000.04,-000.02,0000.48,0000.09,17.5,24.2,04.4,02.9,0649.4,30.9
2021-03-18T09:27:00Z,00040200,00000000,0000.47,0000.46,0000.44,0000.26,0000.10,0000.01,0000.19,-000.09,-000.30,17.5,24.2,04.3,02.9,0649.4,30.9
2021-03-18T09:28:00Z,00040200,00000000,0000.97,0000.48,0000.21,0000.17,-000.13,0000.09,-000.12,0000.01,0000.36,17.5,24.2,04.2,02.8,0649.4,30.9
2021-03-18T09:29:00Z,00040200,00000000,0000.76,0000.33,0000.52,0000.62,0000.08,-000.06,0000.35,0000.38,0000.17,17.5,24.2,04.2,02.8,0649.4,30.9
2021-03-18T09:30:00Z,00040200,00000000,0001.25,0000.46,0000.24,0000.44,-000.12,-000.20,0000.32,0000.61,0000.58,17.5,24.2,04.2,02.8,0649.4,30.9
2021-03-18T09:31:00Z,00040200,00000000,0000.03,0000.66,0000.47,-000.05,0000.12,-000.01,0000.95,0000.34,0000.55,17.5,24.2,04.4,02.9,0649.5,30.9
2021-03-18T09:32:00Z,00040200,00000000,0000.60,0000.16,0000.38,-000.16,0000.18,-000.18,-000.50,-000.26,-000.41,17.5,24.2,04.5,03.0,0649.4,30.9
2021-03-18T09:33:00Z,00040200,00000000,0001.14,0000.51,0000.41,0000.13,0000.03,0000.10,0000.55,0000.54,0000.02,17.5,24.2,04.3,02.8,0649.4,30.9
2021-03-18T09:34:00Z,00040200,00000000,0000.16,0000.48,0000.62,0000.07,0000.31,0000.15,0000.53,0000.60,0000.47,17.5,24.2,04.4,02.9,0649.5,30.9
2021-03-18T09:35:00Z,00040200,00000000,0001.04,0000.60,0000.25,0000.65,0000.03,-000.12,0000.08,-000.06,0000.20,17.5,24.2,04.4,02.9,0649.3,30.9
2021-03-18T09:36:00Z,00040200,00000000,0000.82,0000.24,0000.45,0000.18,-000.04,-000.13,0000.22,0000.41,0000.60,17.5,24.2,04.3,02.9,0649.4,30.9
2021-03-18T09:37:00Z,00040200,00000000,0001.01,0000.35,0000.36,0000.24,0000.25,0000.06,0000.14,-000.21,-000.51,17.5,24.2,04.4,02.9,0649.5,30.9
2021-03-18T09:38:00Z,00040200,00000000,0000.46,0000.48,0000.40,0000.11,0000.02,0000.10,-000.39,-000.64,0000.12,17.5,24.2,04.4,02.9,0649.4,30.9
2021-03-18T09:39:00Z,00040200,00000000,0000.76,0000.33,0000.45,0000.15,-000.02,-000.06,0000.19,0000.50,0000.03,17.6,24.2,04.3,02.9,0649.3,30.9
2021-03-18T09:40:00Z,00040200,00000000,0000.32,0000.27,0000.51,0000.30,0000.09,0000.02,0000.42,0000.86,0000.65,17.6,24.2,04.2,02.8,0649.3,30.9
2021-03-18T09:41:00Z,00040200,00000000,0000.53,0000.52,0000.43,0000.22,0000.07,0000.15,0000.47,-000.03,0000.27,17.7,24.2,04.0,02.7,0649.3,30.9
2021-03-18T09:42:00Z,00040200,00000000,0000.07,0000.14,0000.32,0000.13,-000.04,0000.06,0001.10,0000.95,0000.73,17.6,24.2,04.3,02.8,0649.4,30.9
2021-03-18T09:43:00Z,00040200,00000000,0000.71,0000.33,0000.41,0000.18,0000.03,-000.03,-000.93,-001.12,-000.66,17.7,24.2,04.4,03.0,0649.3,30.9
2021-03-18T09:44:00Z,00040200,00000000,0000.65,0000.55,0000.42,-000.39,0000.00,-000.18,0000.73,0001.45,0000.54,17.7,24.2,04.4,02.9,0649.4,30.9
2021-03-18T09:45:00Z,00040200,00000000,0000.47,0000.50,0000.31,0000.02,0000.05,-000.18,0000.68,0000.13,0000.33,17.7,24.2,04.5,03.0,0649.3,30.9
2021-03-18T09:46:00Z,00040200,00000000,0000.40,0000.60,0000.21,-000.20,0000.00,-000.13,0000.98,0000.49,0000.60,17.7,24.2,04.6,03.1,0649.4,30.9
2021-03-18T09:47:00Z,00040200,00000000,0000.67,0000.30,0000.68,0000.44,0000.11,-000.02,0000.73,0001.21,0000.78,17.7,24.2,04.8,03.2,0649.4,30.9
2021-03-18T09:48:00Z,00040200,00000000,0000.12,0000.23,0000.44,0000.39,0000.10,-000.13,0000.09,0000.12,0000.25,17.7,24.2,05.0,03.3,0649.3,30.9
2021-03-18T09:49:00Z,00040200,00000000,0000.57,0000.59,0000.32,0000.32,0000.20,-000.19,-000.03,-000.23,-000.29,17.7,24.2,04.9,03.3,0649.4,31.0
2021-03-18T09:50:00Z,00040200,00000000,0000.75,0000.57,0000.37,0000.11,0000.03,0000.01,0001.25,0001.10,0001.17,17.6,24.2,05.0,03.3,0649.4,31.0
2021-03-18T09:51:00Z,00040200,00000000,0001.17,0000.53,0000.19,0000.48,0000.12,-000.07,0000.79,0000.91,0000.43,17.6,24.2,05.1,03.4,0649.5,30.9
2021-03-18T09:52:00Z,00040200,00000000,0000.95,0000.40,0000.33,0000.42,-000.05,0000.16,0000.45,0000.44,0000.31,17.7,24.2,05.3,03.6,0649.5,30.9
2021-03-18T09:53:00Z,00040200,00000000,0000.66,0000.52,0000.24,0000.30,0000.14,0000.03,-000.61,-000.09,-000.78,17.6,24.2,05.2,03.5,0649.5,30.9
2021-03-18T09:54:00Z,00040200,00000000,0001.07,0000.29,0000.63,0000.26,0000.22,-000.06,-000.00,-000.30,-000.04,17.6,24.2,05.1,03.4,0649.5,30.9
2021-03-18T09:55:00Z,00040200,00000000,0000.58,0000.40,0000.32,0000.38,0000.20,-000.11,0001.70,0001.50,0001.72,17.6,24.2,05.2,03.5,0649.5,30.9
2021-03-18T09:56:00Z,00040200,00000000,0000.20,0000.51,0000.41,0000.15,0000.09,0000.15,0000.33,0000.04,-000.08,17.6,24.2,05.5,03.7,0649.5,30.9
2021-03-18T09:57:00Z,00040200,40000000,,,,,,,-000.30,-000.03,-000.02,17.7,24.3,05.9,03.9,0649.6,31.0
2021-03-18T09:58:00Z,00040200,60000000,,,,,,,0000.17,0000.19,0000.30,17.4,24.3,05.4,03.5,0648.6,31.0
2021-03-18T09:59:00Z,00040200,20000000,,,,,,,0000.40,0000.43,0000.12,17.4,24.4,05.4,03.5,0648.6,31.0
